ARG1051 SAWC-SABE

Flight info

Callsign ARG1051
Flight time N/A
Altitude 37000
Route BOKUK2G BOKUK UW48 CRV UP664 TRE UT693 BCA UW22 VALOS VALOS9R
Aircraft B738/M-SDE2E3FGHIRWXY/LB1

Departure

Time 2026-04-18 14:31
Airport El Calafate - Commander Armando Tola International Airport (SAWC)

Arrival

Time N/A
Airport Aeroparque Jorge Newbery (SABE)
Time Latitude Longitude Altitude Speed Heading
2026-04-18 13:34 -50.28334 -72.05488 643 ft 0 kts 143°
2026-04-18 14:17 -50.28322 -72.05502 642 ft 4 kts 143°
2026-04-18 14:18 -50.28288 -72.05546 646 ft 4 kts 128°
2026-04-18 14:18 -50.28274 -72.05581 645 ft 4 kts 103°
2026-04-18 14:19 -50.28272 -72.05609 645 ft 1 kts 84°
2026-04-18 14:23 -50.28270 -72.05571 646 ft 5 kts 84°
2026-04-18 14:23 -50.28266 -72.05515 642 ft 5 kts 84°
2026-04-18 14:24 -50.28251 -72.05410 643 ft 5 kts 41°
2026-04-18 14:24 -50.28217 -72.05400 642 ft 5 kts
2026-04-18 14:24 -50.28183 -72.05405 642 ft 5 kts 355°
2026-04-18 14:25 -50.28166 -72.05407 642 ft 0 kts 355°
2026-04-18 14:26 -50.28161 -72.05408 642 ft 2 kts 355°
2026-04-18 14:27 -50.28124 -72.05412 642 ft 7 kts 356°
2026-04-18 14:27 -50.28076 -72.05417 642 ft 7 kts 356°
2026-04-18 14:27 -50.28032 -72.05431 642 ft 6 kts 320°
2026-04-18 14:27 -50.28029 -72.05488 642 ft 7 kts 264°
2026-04-18 14:28 -50.28035 -72.05595 640 ft 13 kts 264°
2026-04-18 14:28 -50.28046 -72.05767 642 ft 18 kts 264°
2026-04-18 14:28 -50.28059 -72.05984 642 ft 21 kts 264°
2026-04-18 14:28 -50.28072 -72.06214 642 ft 21 kts 265°
2026-04-18 14:29 -50.28086 -72.06436 643 ft 20 kts 265°
2026-04-18 14:29 -50.28098 -72.06646 644 ft 19 kts 264°
2026-04-18 14:29 -50.28109 -72.06827 643 ft 13 kts 264°
2026-04-18 14:29 -50.28143 -72.06923 642 ft 10 kts 233°
2026-04-18 14:30 -50.28160 -72.07004 642 ft 7 kts 286°
2026-04-18 14:30 -50.28122 -72.07019 642 ft 7 kts 44°
2026-04-18 14:30 -50.28112 -72.06872 644 ft 31 kts 85°
2026-04-18 14:30 -50.28069 -72.06144 642 ft 102 kts 85°
2026-04-18 14:31 -50.27981 -72.04711 658 ft 160 kts 84°
2026-04-18 14:31 -50.27886 -72.02912 1291 ft 167 kts 85°
2026-04-18 14:31 -50.27799 -72.01034 2065 ft 178 kts 85°
2026-04-18 14:31 -50.27693 -71.99091 2876 ft 182 kts 86°
2026-04-18 14:32 -50.27577 -71.97017 3326 ft 202 kts 86°
2026-04-18 14:32 -50.27460 -71.94744 3658 ft 220 kts 85°
2026-04-18 14:32 -50.27036 -71.92352 3980 ft 240 kts 59°
2026-04-18 14:32 -50.25764 -71.90475 4174 ft 270 kts 26°
2026-04-18 14:33 -50.23948 -71.89858 5022 ft 269 kts 355°
2026-04-18 14:33 -50.22177 -71.90674 6089 ft 259 kts 327°
2026-04-18 14:33 -50.20779 -71.92437 6715 ft 267 kts 311°
2026-04-18 14:33 -50.19568 -71.94656 7647 ft 264 kts 309°
2026-04-18 14:34 -50.18105 -71.96400 8367 ft 273 kts 340°
2026-04-18 14:34 -50.16215 -71.96582 9198 ft 277 kts
2026-04-18 14:34 -50.14305 -71.96149 9986 ft 279 kts
2026-04-18 14:34 -50.12364 -71.95967 10723 ft 280 kts 359°
2026-04-18 14:35 -50.10410 -71.95991 11500 ft 281 kts 356°
2026-04-18 14:35 -50.08450 -71.96112 12291 ft 282 kts 355°
2026-04-18 14:35 -50.06487 -71.96266 13073 ft 284 kts 355°
2026-04-18 14:35 -50.04511 -71.96020 13762 ft 291 kts 14°
2026-04-18 14:36 -50.02623 -71.94630 14021 ft 314 kts 29°
2026-04-18 14:36 -50.00750 -71.92672 14196 ft 335 kts 31°
2026-04-18 14:36 -49.98796 -71.90534 14424 ft 351 kts 32°
2026-04-18 14:36 -49.96784 -71.88327 14962 ft 357 kts 32°
2026-04-18 14:37 -49.94743 -71.86110 15676 ft 358 kts 31°
2026-04-18 14:37 -49.92709 -71.83924 16636 ft 350 kts 31°
2026-04-18 14:37 -49.90735 -71.81816 17852 ft 339 kts 30°
2026-04-18 14:37 -49.88806 -71.79769 18732 ft 334 kts 30°
2026-04-18 14:38 -49.86876 -71.77733 19300 ft 338 kts 30°
2026-04-18 14:38 -49.84923 -71.75675 19825 ft 341 kts 30°
2026-04-18 14:38 -49.82951 -71.73598 20420 ft 343 kts 29°
2026-04-18 14:38 -49.80975 -71.71517 20994 ft 345 kts 29°
2026-04-18 14:39 -49.78984 -71.69425 21567 ft 347 kts 29°
2026-04-18 14:39 -49.76983 -71.67323 22128 ft 349 kts 29°
2026-04-18 14:39 -49.74966 -71.65206 22659 ft 351 kts 28°
2026-04-18 14:39 -49.72943 -71.63083 23199 ft 352 kts 28°
2026-04-18 14:40 -49.70917 -71.60958 23714 ft 352 kts 28°
2026-04-18 14:40 -49.68881 -71.58827 24168 ft 354 kts 27°
2026-04-18 14:40 -49.66833 -71.56686 24595 ft 357 kts 27°
2026-04-18 14:40 -49.64774 -71.54533 25040 ft 358 kts 27°
2026-04-18 14:41 -49.62703 -71.52369 25495 ft 360 kts 27°
2026-04-18 14:41 -49.60625 -71.50201 25923 ft 362 kts 27°
2026-04-18 14:41 -49.58537 -71.48025 26341 ft 363 kts 27°
2026-04-18 14:41 -49.56434 -71.45837 26757 ft 365 kts 27°
2026-04-18 14:42 -49.54329 -71.43629 27161 ft 368 kts 27°
2026-04-18 14:42 -49.52235 -71.41339 27556 ft 370 kts 28°
2026-04-18 14:42 -49.50146 -71.39014 27952 ft 372 kts 28°
2026-04-18 14:42 -49.48050 -71.36671 28345 ft 374 kts 28°
2026-04-18 14:43 -49.45937 -71.34316 28659 ft 376 kts 28°
2026-04-18 14:43 -49.43803 -71.31947 28954 ft 380 kts 28°
2026-04-18 14:43 -49.41655 -71.29568 29318 ft 382 kts 28°
2026-04-18 14:43 -49.39494 -71.27179 29604 ft 386 kts 28°
2026-04-18 14:44 -49.37289 -71.24752 29654 ft 394 kts 28°
2026-04-18 14:44 -49.32751 -71.19767 29779 ft 408 kts 28°
2026-04-18 14:45 -49.28052 -71.14610 29917 ft 422 kts 28°
2026-04-18 14:45 -49.25654 -71.11979 30068 ft 425 kts 28°
2026-04-18 14:45 -49.23241 -71.09333 30316 ft 427 kts 29°
2026-04-18 14:45 -49.20826 -71.06689 30586 ft 428 kts 29°
2026-04-18 14:46 -49.18406 -71.04044 30846 ft 428 kts 29°
2026-04-18 14:46 -49.15981 -71.01397 31116 ft 429 kts 29°
2026-04-18 14:46 -49.13545 -70.98745 31292 ft 432 kts 29°
2026-04-18 14:46 -49.11094 -70.96080 31503 ft 434 kts 29°
2026-04-18 14:47 -49.08632 -70.93406 31757 ft 434 kts 29°
2026-04-18 14:47 -49.06166 -70.90731 31975 ft 436 kts 29°
2026-04-18 14:47 -49.03688 -70.88047 32143 ft 439 kts 29°
2026-04-18 14:47 -49.01197 -70.85352 32354 ft 440 kts 29°
2026-04-18 14:48 -48.98695 -70.82646 32588 ft 441 kts 29°
2026-04-18 14:48 -48.96190 -70.79939 32798 ft 443 kts 30°
2026-04-18 14:48 -48.93674 -70.77224 32960 ft 445 kts 29°
2026-04-18 14:48 -48.91135 -70.74489 33061 ft 449 kts 29°
2026-04-18 14:49 -48.88586 -70.71746 33267 ft 450 kts 29°
2026-04-18 14:49 -48.86032 -70.68998 33550 ft 450 kts 29°
2026-04-18 14:49 -48.83470 -70.66246 33744 ft 451 kts 29°
2026-04-18 14:49 -48.80904 -70.63493 33928 ft 452 kts 29°
2026-04-18 14:50 -48.78336 -70.60741 34126 ft 452 kts 29°
2026-04-18 14:50 -48.75768 -70.57993 34351 ft 452 kts 29°
2026-04-18 14:50 -48.73202 -70.55252 34559 ft 452 kts 29°
2026-04-18 14:50 -48.70750 -70.52239 34687 ft 462 kts 43°
2026-04-18 14:51 -48.68686 -70.48466 34835 ft 466 kts 46°
2026-04-18 14:51 -48.66680 -70.44609 34970 ft 468 kts 46°
2026-04-18 14:51 -48.64671 -70.40740 35130 ft 468 kts 46°
2026-04-18 14:51 -48.62647 -70.36889 35348 ft 467 kts 46°
2026-04-18 14:52 -48.60614 -70.33070 35569 ft 466 kts 45°
2026-04-18 14:52 -48.58571 -70.29269 35736 ft 466 kts 45°
2026-04-18 14:52 -48.56517 -70.25470 35901 ft 467 kts 45°
2026-04-18 14:52 -48.54462 -70.21683 36067 ft 467 kts 45°
2026-04-18 14:53 -48.52404 -70.17891 36255 ft 466 kts 45°
2026-04-18 14:53 -48.50351 -70.14109 36405 ft 466 kts 45°
2026-04-18 14:53 -48.48301 -70.10335 36562 ft 466 kts 45°
2026-04-18 14:54 -48.44094 -70.02887 36522 ft 461 kts 34°
2026-04-18 14:54 -48.38959 -69.97391 36539 ft 453 kts 28°
2026-04-18 14:55 -48.33759 -69.92044 36535 ft 454 kts 28°
2026-04-18 14:55 -48.28564 -69.86634 36508 ft 455 kts 29°
2026-04-18 14:56 -48.23384 -69.81200 36520 ft 455 kts 29°
2026-04-18 14:56 -48.18201 -69.75761 36522 ft 455 kts 29°
2026-04-18 14:57 -48.13888 -69.71244 36512 ft 455 kts 29°
2026-04-18 14:57 -48.08705 -69.65831 36525 ft 454 kts 29°
2026-04-18 14:58 -48.03517 -69.60429 36493 ft 454 kts 29°
2026-04-18 14:58 -47.98334 -69.55044 36510 ft 453 kts 28°
2026-04-18 14:59 -47.93162 -69.49686 36516 ft 452 kts 28°
2026-04-18 14:59 -47.87997 -69.44347 36514 ft 451 kts 28°
2026-04-18 15:00 -47.82840 -69.39031 36513 ft 451 kts 28°
2026-04-18 15:00 -47.77684 -69.33727 36486 ft 450 kts 28°
2026-04-18 15:01 -47.72543 -69.28453 36508 ft 449 kts 28°
2026-04-18 15:01 -47.67400 -69.23190 36514 ft 449 kts 28°
2026-04-18 15:02 -47.62258 -69.17941 36511 ft 449 kts 28°
2026-04-18 15:02 -47.57107 -69.12695 36501 ft 449 kts 28°
2026-04-18 15:03 -47.51952 -69.07458 36518 ft 450 kts 28°
2026-04-18 15:03 -47.46782 -69.02219 36522 ft 451 kts 28°
2026-04-18 15:04 -47.41593 -68.96972 36523 ft 452 kts 28°
2026-04-18 15:04 -47.36393 -68.91728 36524 ft 454 kts 28°
2026-04-18 15:05 -47.31173 -68.86475 36508 ft 455 kts 28°
2026-04-18 15:05 -47.25951 -68.81233 36519 ft 454 kts 28°
2026-04-18 15:06 -47.20719 -68.75995 36525 ft 455 kts 28°
2026-04-18 15:06 -47.15478 -68.70760 36521 ft 456 kts 28°
2026-04-18 15:07 -47.10232 -68.65532 36528 ft 456 kts 28°
2026-04-18 15:07 -47.04989 -68.60319 36533 ft 455 kts 28°